When you browse on this site, cookies collect data to enhance your experience and personalize the content and advertising you see.
Visit our Privacy Policy to learn more. By continuing to use the site, you agree to this use of cookies and data.
  • en France
  • Liste des pays
  • À 7 jours
  • Température de l'eau
  • Carte météo
  • Widgets météo
  • user-avatar
    Se connecter

    Météo par heure à Tome

    Ce jour, 15 Novembre, Vendredi

    Heure Température Précipitation Vent Pression Humidité
    00:00 +14°C° 0 mm 2 m/s 758 mmHg 96%
    01:00 +14°C° 0 mm 1 m/s 758 mmHg 97%
    02:00 +14°C° 0 mm 1 m/s 758 mmHg 97%
    03:00 +14°C° 0 mm 1 m/s 758 mmHg 97%
    04:00 +13°C° 0 mm 0 m/s 757 mmHg 97%
    05:00 +15°C° 0 mm 0 m/s 758 mmHg 89%
    06:00 +17°C° 0 mm 0 m/s 758 mmHg 81%
    07:00 +20°C° 0 mm 0 m/s 758 mmHg 70%
    08:00 +24°C° 0 mm 1 m/s 758 mmHg 64%
    09:00 +25°C° 0 mm 2 m/s 758 mmHg 59%
    10:00 +27°C° 0 mm 2 m/s 758 mmHg 54%
    11:00 +26°C° 0 mm 3 m/s 758 mmHg 55%
    12:00 +26°C° 0 mm 3 m/s 758 mmHg 56%
    13:00 +26°C° 0 mm 4 m/s 757 mmHg 56%
    14:00 +25°C° 0 mm 3 m/s 757 mmHg 59%
    15:00 +24°C° 0 mm 3 m/s 757 mmHg 62%
    16:00 +22°C° 0 mm 3 m/s 757 mmHg 64%
    17:00 +20°C° 0 mm 3 m/s 757 mmHg 75%
    18:00 +18°C° 0 mm 2 m/s 758 mmHg 86%
    19:00 +16°C° 0 mm 1 m/s 758 mmHg 97%
    20:00 +15°C° 0 mm 1 m/s 758 mmHg 97%
    21:00 +15°C° 0 mm 1 m/s 759 mmHg 98%
    22:00 +14°C° 0 mm 0 m/s 759 mmHg 98%
    23:00 +14°C° 0 mm 1 m/s 759 mmHg 98%

    Demain, 16 Novembre, Samedi

    Heure Température Précipitation Vent Pression Humidité
    00:00 +13°C° 0 mm 1 m/s 758 mmHg 99%
    01:00 +12°C° 0 mm 1 m/s 758 mmHg 99%
    02:00 +12°C° 0 mm 1 m/s 757 mmHg 98%
    03:00 +11°C° 0 mm 1 m/s 757 mmHg 98%
    04:00 +10°C° 0 mm 0 m/s 756 mmHg 98%
    05:00 +13°C° 0 mm 1 m/s 756 mmHg 88%
    06:00 +15°C° 0 mm 1 m/s 756 mmHg 78%
    07:00 +18°C° 0 mm 1 m/s 756 mmHg 68%
    08:00 +19°C° 0 mm 2 m/s 757 mmHg 58%
    09:00 +21°C° 0 mm 2 m/s 757 mmHg 47%
    10:00 +24°C° 0 mm 3 m/s 757 mmHg 37%
    11:00 +24°C° 0 mm 3 m/s 757 mmHg 36%
    12:00 +24°C° 0 mm 3 m/s 757 mmHg 36%
    13:00 +23°C° 0 mm 4 m/s 757 mmHg 35%
    14:00 +22°C° 0 mm 3 m/s 757 mmHg 39%
    15:00 +21°C° 0 mm 3 m/s 757 mmHg 44%
    16:00 +20°C° 0 mm 3 m/s 757 mmHg 48%
    17:00 +18°C° 0 mm 3 m/s 757 mmHg 63%
    18:00 +15°C° 0 mm 2 m/s 757 mmHg 77%
    19:00 +12°C° 0 mm 2 m/s 757 mmHg 91%
    20:00 +12°C° 0 mm 1 m/s 757 mmHg 93%
    21:00 +11°C° 0 mm 1 m/s 758 mmHg 95%
    22:00 +10°C° 0 mm 1 m/s 758 mmHg 97%
    23:00 +10°C° 0 mm 1 m/s 758 mmHg 97%

    Après-demain, 17 Novembre, Dimanche

    Heure Température Précipitation Vent Pression Humidité
    00:00 +9°C° 0 mm 1 m/s 758 mmHg 97%
    01:00 +9°C° 0 mm 1 m/s 758 mmHg 97%
    02:00 +9°C° 0 mm 1 m/s 758 mmHg 97%
    03:00 +9°C° 0 mm 1 m/s 758 mmHg 97%
    04:00 +9°C° 0 mm 1 m/s 758 mmHg 97%
    05:00 +11°C° 0 mm 1 m/s 758 mmHg 91%
    06:00 +13°C° 0 mm 1 m/s 758 mmHg 84%
    07:00 +15°C° 0 mm 1 m/s 758 mmHg 77%
    08:00 +17°C° 0 mm 2 m/s 758 mmHg 64%
    09:00 +20°C° 0 mm 3 m/s 758 mmHg 51%
    10:00 +24°C° 0 mm 3 m/s 758 mmHg 38%
    11:00 +23°C° 0 mm 4 m/s 758 mmHg 39%
    12:00 +25°C° 0 mm 4 m/s 758 mmHg 40%
    13:00 +25°C° 0 mm 5 m/s 758 mmHg 40%
    14:00 +23°C° 0 mm 5 m/s 758 mmHg 44%
    15:00 +22°C° 0 mm 5 m/s 758 mmHg 48%
    16:00 +20°C° 0 mm 5 m/s 758 mmHg 52%
    17:00 +17°C° 0 mm 5 m/s 758 mmHg 63%
    18:00 +15°C° 0 mm 4 m/s 758 mmHg 73%
    19:00 +12°C° 0 mm 4 m/s 758 mmHg 84%
    20:00 +12°C° 0 mm 4 m/s 758 mmHg 86%
    21:00 +11°C° 0 mm 3 m/s 759 mmHg 88%
    22:00 +11°C° 0 mm 3 m/s 759 mmHg 91%
    23:00 +11°C° 0 mm 3 m/s 758 mmHg 91%

    18 Novembre, Lundi

    Heure Température Précipitation Vent Pression Humidité
    00:00 +10°C° 0 mm 3 m/s 758 mmHg 92%
    01:00 +10°C° 0 mm 3 m/s 758 mmHg 93%
    02:00 +10°C° 0 mm 3 m/s 758 mmHg 92%
    03:00 +10°C° 0 mm 3 m/s 758 mmHg 91%
    04:00 +10°C° 0 mm 3 m/s 758 mmHg 90%
    05:00 +12°C° 0 mm 3 m/s 758 mmHg 78%
    06:00 +14°C° 0 mm 3 m/s 758 mmHg 66%
    07:00 +18°C° 0 mm 4 m/s 758 mmHg 54%
    08:00 +20°C° 0 mm 4 m/s 757 mmHg 47%
    09:00 +23°C° 0 mm 4 m/s 757 mmHg 39%
    10:00 +26°C° 0 mm 4 m/s 757 mmHg 32%
    11:00 +27°C° 0 mm 5 m/s 757 mmHg 28%
    12:00 +29°C° 0 mm 5 m/s 756 mmHg 24%
    13:00 +30°C° 0 mm 5 m/s 756 mmHg 21%
    14:00 +30°C° 0 mm 5 m/s 756 mmHg 24%
    15:00 +29°C° 0 mm 5 m/s 755 mmHg 27%
    16:00 +28°C° 0 mm 5 m/s 755 mmHg 30%
    17:00 +25°C° 0 mm 4 m/s 755 mmHg 44%
    18:00 +20°C° 0 mm 4 m/s 755 mmHg 57%
    19:00 +17°C° 0 mm 4 m/s 755 mmHg 71%
    20:00 +16°C° 0 mm 3 m/s 755 mmHg 70%
    21:00 +16°C° 0 mm 3 m/s 755 mmHg 69%
    22:00 +16°C° 0 mm 2 m/s 755 mmHg 68%
    23:00 +15°C° 0 mm 2 m/s 755 mmHg 70%

    19 Novembre, Mardi

    Heure Température Précipitation Vent Pression Humidité
    00:00 +14°C° 0 mm 2 m/s 755 mmHg 72%
    01:00 +14°C° 0 mm 2 m/s 754 mmHg 74%
    02:00 +13°C° 0 mm 2 m/s 754 mmHg 75%
    03:00 +13°C° 0 mm 2 m/s 754 mmHg 76%
    04:00 +11°C° 0 mm 3 m/s 754 mmHg 76%
    05:00 +15°C° 0 mm 2 m/s 755 mmHg 68%
    06:00 +18°C° 0 mm 2 m/s 755 mmHg 59%
    07:00 +20°C° 0 mm 2 m/s 756 mmHg 51%
    08:00 +22°C° 0 mm 3 m/s 756 mmHg 42%
    09:00 +25°C° 0 mm 3 m/s 756 mmHg 33%
    10:00 +28°C° 0 mm 4 m/s 756 mmHg 24%
    11:00 +27°C° 0 mm 4 m/s 756 mmHg 26%
    12:00 +27°C° 0 mm 4 m/s 756 mmHg 29%
    13:00 +27°C° 0 mm 5 m/s 756 mmHg 31%
    14:00 +26°C° 0 mm 4 m/s 756 mmHg 36%
    15:00 +25°C° 0 mm 4 m/s 756 mmHg 41%
    16:00 +23°C° 0 mm 4 m/s 756 mmHg 46%
    17:00 +21°C° 0 mm 3 m/s 756 mmHg 60%
    18:00 +18°C° 0 mm 3 m/s 756 mmHg 75%
    19:00 +16°C° 0 mm 3 m/s 756 mmHg 90%
    20:00 +15°C° 0 mm 2 m/s 756 mmHg 92%
    21:00 +14°C° 0 mm 2 m/s 756 mmHg 95%
    22:00 +13°C° 0 mm 2 m/s 756 mmHg 97%
    23:00 +13°C° 0 mm 2 m/s 756 mmHg 97%

    20 Novembre, Mercredi

    Heure Température Précipitation Vent Pression Humidité
    00:00 +13°C° 0 mm 2 m/s 756 mmHg 97%
    01:00 +13°C° 0 mm 2 m/s 755 mmHg 97%
    02:00 +13°C° 0 mm 2 m/s 755 mmHg 97%
    03:00 +12°C° 0 mm 2 m/s 756 mmHg 97%
    04:00 +12°C° 0 mm 2 m/s 756 mmHg 97%
    05:00 +14°C° 0 mm 2 m/s 756 mmHg 89%
    06:00 +17°C° 0 mm 3 m/s 756 mmHg 80%
    07:00 +19°C° 0 mm 3 m/s 756 mmHg 72%
    08:00 +21°C° 0 mm 3 m/s 756 mmHg 59%
    09:00 +23°C° 0 mm 4 m/s 756 mmHg 47%
    10:00 +26°C° 0 mm 5 m/s 757 mmHg 34%
    11:00 +26°C° 0 mm 5 m/s 757 mmHg 33%
    12:00 +26°C° 0 mm 5 m/s 757 mmHg 32%
    13:00 +24°C° 0 mm 6 m/s 757 mmHg 30%
    14:00 +23°C° 0 mm 6 m/s 757 mmHg 31%
    15:00 +22°C° 0 mm 6 m/s 757 mmHg 32%
    16:00 +21°C° 0 mm 6 m/s 756 mmHg 33%
    17:00 +19°C° 0 mm 6 m/s 757 mmHg 41%
    18:00 +15°C° 0 mm 5 m/s 757 mmHg 48%
    19:00 +13°C° 0 mm 5 m/s 757 mmHg 55%
    20:00 +12°C° 0 mm 5 m/s 757 mmHg 57%
    21:00 +10°C° 0 mm 5 m/s 758 mmHg 59%
    22:00 +10°C° 0 mm 4 m/s 758 mmHg 61%
    23:00 +10°C° 0 mm 4 m/s 757 mmHg 61%
    Voir plus